User: anonymous   Login
Location: Unspecified
(0.0000°N, 0.0000°E)
Time: 13:13:31
(UTC+01:00)
Language:

H-2A R/B - Orbit

View from above orbital plane
View from above orbital plane
View from above satellite
View from above satellite

Ground track
Ground track

The orbit data is extracted from the following two-line orbital elements,

1 28932U 06002B   14327.51830699  .00004326  00000-0  43194-3 0  8640
2 28932 098.2790 195.2206 0095838 134.0538 287.8404 14.88677931478289
Epoch (UTC): 23 November 2014 12:26:21
Eccentricity: 0.0095838
inclination: 98.2790°
perigee height: 535 km
apogee height: 669 km
right ascension of ascending node: 195.2206°
argument of perigee: 134.0538°
revolutions per day: 14.88677931
mean anomaly at epoch: 287.8404°
orbit number at epoch: 47828

The dashed part of the orbit path shows where the satellite is in the earth's shadow,  

DLR